Location: Borgo
(42.3939°N, 9.2791°E)
Time: 18:07:15
(UTC+00:00)

Cosmos 1455 - Pass Details

Date: 24 January 2021
Orbit: 499 x 520 km, 82.5° (Epoch: 02 March)

Event Time Altitude Azimuth Distance (km) Brightness Sun altitude
Rises 17:49:40 0° 346° (NNW) 2,635 5.8 -15.3°
Reaches altitude 10° 17:51:50 10° 342° (NNW) 1,747 5.0 -15.7°
Maximum altitude 17:55:33 51° 266° (W) 656 3.1 -16.4°
Drops below altitude 10° 17:59:16 10° 190° (S) 1,743 5.1 -17.1°
Sets 18:01:26 0° 185° (S) 2,628 6.0 -17.4°
